{"data":{"norad_id":61898,"epoch":"2026-05-25T04:09:56.717568Z","epoch_age_seconds":53822,"freshness":"FRESH","line1":"1 61898U 24205E   26145.17357312  .00008424  00000+0  49273-3 0  9997","line2":"2 61898  97.4120 216.5337 0058162  82.0904 278.6922 15.10647396 84740","mean_motion":15.10647396,"eccentricity":0.0058162,"inclination_deg":97.412,"raan_deg":216.5337,"arg_perigee_deg":82.0904,"mean_anomaly_deg":278.6922,"bstar":0.00049273,"rev_number":8474,"period_min":95.323369557511,"perigee_km":494.02073483238,"apogee_km":574.42808771287,"semimajor_km":6912.3614112726,"source":"CELESTRAK","updated_at":"2026-05-25T13:38:02.602917Z"}}